﻿測定場所 (Monitoring sites),日付 (Measurement date),時間 (Measurement time),線量率 最大値 (max) μGy/h,線量率 最小値 (min) μGy/h,線量率 平均値 (average) μGy/h,
江戸川 (Edogawa),2011-12-18,23:01～24:00,0.140,0.125,0.132,
江戸川 (Edogawa),2011-12-18,22:01～23:00,0.138,0.125,0.132,
江戸川 (Edogawa),2011-12-18,21:01～22:00,0.143,0.126,0.132,
江戸川 (Edogawa),2011-12-18,20:01～21:00,0.141,0.127,0.133,
江戸川 (Edogawa),2011-12-18,19:01～20:00,0.141,0.121,0.133,
江戸川 (Edogawa),2011-12-18,18:01～19:00,0.141,0.126,0.133,
江戸川 (Edogawa),2011-12-18,17:01～18:00,0.143,0.126,0.133,
江戸川 (Edogawa),2011-12-18,16:01～17:00,0.141,0.126,0.133,
江戸川 (Edogawa),2011-12-18,15:01～16:00,0.141,0.127,0.133,
江戸川 (Edogawa),2011-12-18,14:01～15:00,0.142,0.126,0.134,
江戸川 (Edogawa),2011-12-18,13:01～14:00,0.138,0.127,0.133,
江戸川 (Edogawa),2011-12-18,12:01～13:00,0.142,0.127,0.134,
江戸川 (Edogawa),2011-12-18,11:01～12:00,0.141,0.127,0.134,
江戸川 (Edogawa),2011-12-18,10:01～11:00,0.138,0.125,0.133,
江戸川 (Edogawa),2011-12-18,09:01～10:00,0.141,0.126,0.132,
江戸川 (Edogawa),2011-12-18,08:01～09:00,0.138,0.124,0.132,
江戸川 (Edogawa),2011-12-18,07:01～08:00,0.139,0.123,0.131,
江戸川 (Edogawa),2011-12-18,06:01～07:00,0.139,0.126,0.131,
江戸川 (Edogawa),2011-12-18,05:01～06:00,0.137,0.126,0.131,
江戸川 (Edogawa),2011-12-18,04:01～05:00,0.136,0.124,0.131,
江戸川 (Edogawa),2011-12-18,03:01～04:00,0.139,0.123,0.131,
江戸川 (Edogawa),2011-12-18,02:01～03:00,0.141,0.126,0.132,
江戸川 (Edogawa),2011-12-18,01:01～02:00,0.139,0.123,0.132,
江戸川 (Edogawa),2011-12-18,00:01～01:00,0.137,0.123,0.131,
江戸川 (Edogawa),2011-12-17,23:01～24:00,0.138,0.126,0.131,
江戸川 (Edogawa),2011-12-17,22:01～23:00,0.139,0.126,0.132,
江戸川 (Edogawa),2011-12-17,21:01～22:00,0.137,0.123,0.131,
江戸川 (Edogawa),2011-12-17,20:01～21:00,0.141,0.126,0.131,
江戸川 (Edogawa),2011-12-17,19:01～20:00,0.138,0.126,0.132,
江戸川 (Edogawa),2011-12-17,18:01～19:00,0.140,0.125,0.132,
江戸川 (Edogawa),2011-12-17,17:01～18:00,0.139,0.124,0.131,
江戸川 (Edogawa),2011-12-17,16:01～17:00,0.141,0.124,0.132,
江戸川 (Edogawa),2011-12-17,15:01～16:00,0.142,0.127,0.133,
江戸川 (Edogawa),2011-12-17,14:01～15:00,0.140,0.126,0.134,
江戸川 (Edogawa),2011-12-17,13:01～14:00,0.140,0.127,0.132,
江戸川 (Edogawa),2011-12-17,12:01～13:00,0.140,0.127,0.133,
江戸川 (Edogawa),2011-12-17,11:01～12:00,0.140,0.127,0.132,
江戸川 (Edogawa),2011-12-17,10:01～11:00,0.140,0.126,0.132,
江戸川 (Edogawa),2011-12-17,09:01～10:00,0.139,0.124,0.132,
江戸川 (Edogawa),2011-12-17,08:01～09:00,0.139,0.125,0.131,
江戸川 (Edogawa),2011-12-17,07:01～08:00,0.139,0.125,0.131,
江戸川 (Edogawa),2011-12-17,06:01～07:00,0.141,0.125,0.131,
江戸川 (Edogawa),2011-12-17,05:01～06:00,0.137,0.126,0.132,
江戸川 (Edogawa),2011-12-17,04:01～05:00,0.135,0.126,0.131,
江戸川 (Edogawa),2011-12-17,03:01～04:00,0.136,0.124,0.130,
江戸川 (Edogawa),2011-12-17,02:01～03:00,0.142,0.125,0.132,
江戸川 (Edogawa),2011-12-17,01:01～02:00,0.138,0.125,0.131,
江戸川 (Edogawa),2011-12-17,00:01～01:00,0.139,0.123,0.132,
江戸川 (Edogawa),2011-12-16,23:01～24:00,0.139,0.122,0.132,
江戸川 (Edogawa),2011-12-16,22:01～23:00,0.139,0.126,0.132,
江戸川 (Edogawa),2011-12-16,21:01～22:00,0.140,0.124,0.132,
江戸川 (Edogawa),2011-12-16,20:01～21:00,0.140,0.127,0.133,
江戸川 (Edogawa),2011-12-16,19:01～20:00,0.140,0.125,0.133,
江戸川 (Edogawa),2011-12-16,18:01～19:00,0.138,0.128,0.132,
江戸川 (Edogawa),2011-12-16,17:01～18:00,0.139,0.127,0.133,
江戸川 (Edogawa),2011-12-16,16:01～17:00,0.138,0.123,0.133,
江戸川 (Edogawa),2011-12-16,15:01～16:00,0.140,0.127,0.134,
江戸川 (Edogawa),2011-12-16,14:01～15:00,0.143,0.127,0.135,
江戸川 (Edogawa),2011-12-16,13:01～14:00,0.142,0.127,0.134,
江戸川 (Edogawa),2011-12-16,12:01～13:00,0.143,0.125,0.135,
江戸川 (Edogawa),2011-12-16,11:01～12:00,0.141,0.127,0.135,
江戸川 (Edogawa),2011-12-16,10:01～11:00,0.141,0.129,0.134,
江戸川 (Edogawa),2011-12-16,09:01～10:00,0.140,0.126,0.134,
江戸川 (Edogawa),2011-12-16,08:01～09:00,0.140,0.127,0.134,
江戸川 (Edogawa),2011-12-16,07:01～08:00,0.139,0.127,0.132,
江戸川 (Edogawa),2011-12-16,06:01～07:00,0.140,0.126,0.133,
江戸川 (Edogawa),2011-12-16,05:01～06:00,0.139,0.126,0.133,
江戸川 (Edogawa),2011-12-16,04:01～05:00,0.140,0.125,0.133,
江戸川 (Edogawa),2011-12-16,03:01～04:00,0.138,0.123,0.133,
江戸川 (Edogawa),2011-12-16,02:01～03:00,0.141,0.124,0.133,
江戸川 (Edogawa),2011-12-16,01:01～02:00,0.142,0.126,0.133,
江戸川 (Edogawa),2011-12-16,00:01～01:00,0.137,0.122,0.132,
江戸川 (Edogawa),2011-12-15,23:01～24:00,0.141,0.126,0.132,
江戸川 (Edogawa),2011-12-15,22:01～23:00,0.139,0.125,0.132,
江戸川 (Edogawa),2011-12-15,21:01～22:00,0.138,0.126,0.132,
江戸川 (Edogawa),2011-12-15,20:01～21:00,0.139,0.126,0.133,
江戸川 (Edogawa),2011-12-15,19:01～20:00,0.140,0.127,0.133,
江戸川 (Edogawa),2011-12-15,18:01～19:00,0.138,0.121,0.130,
江戸川 (Edogawa),2011-12-15,17:01～18:00,0.135,0.125,0.130,
江戸川 (Edogawa),2011-12-15,16:01～17:00,0.137,0.124,0.130,
江戸川 (Edogawa),2011-12-15,15:01～16:00,0.139,0.126,0.132,
江戸川 (Edogawa),2011-12-15,14:01～15:00,0.139,0.126,0.132,
江戸川 (Edogawa),2011-12-15,13:01～14:00,0.138,0.124,0.131,
江戸川 (Edogawa),2011-12-15,12:01～13:00,0.137,0.123,0.133,
江戸川 (Edogawa),2011-12-15,11:01～12:00,0.138,0.123,0.131,
江戸川 (Edogawa),2011-12-15,10:01～11:00,0.140,0.124,0.131,
江戸川 (Edogawa),2011-12-15,09:01～10:00,0.140,0.124,0.131,
江戸川 (Edogawa),2011-12-15,08:01～09:00,0.140,0.122,0.130,
江戸川 (Edogawa),2011-12-15,07:01～08:00,0.140,0.125,0.132,
江戸川 (Edogawa),2011-12-15,06:01～07:00,0.143,0.123,0.132,
江戸川 (Edogawa),2011-12-15,05:01～06:00,0.140,0.126,0.132,
江戸川 (Edogawa),2011-12-15,04:01～05:00,0.139,0.125,0.132,
江戸川 (Edogawa),2011-12-15,03:01～04:00,0.138,0.125,0.131,
江戸川 (Edogawa),2011-12-15,02:01～03:00,0.140,0.126,0.132,
江戸川 (Edogawa),2011-12-15,01:01～02:00,0.138,0.127,0.132,
江戸川 (Edogawa),2011-12-15,00:01～01:00,0.141,0.127,0.132,
江戸川 (Edogawa),2011-12-14,23:01～24:00,0.137,0.126,0.132,
江戸川 (Edogawa),2011-12-14,22:01～23:00,0.140,0.125,0.132,
江戸川 (Edogawa),2011-12-14,21:01～22:00,0.141,0.123,0.132,
江戸川 (Edogawa),2011-12-14,20:01～21:00,0.137,0.122,0.132,
江戸川 (Edogawa),2011-12-14,19:01～20:00,0.142,0.127,0.132,
江戸川 (Edogawa),2011-12-14,18:01～19:00,0.138,0.127,0.132,
江戸川 (Edogawa),2011-12-14,17:01～18:00,0.141,0.122,0.132,
江戸川 (Edogawa),2011-12-14,16:01～17:00,0.140,0.124,0.132,
江戸川 (Edogawa),2011-12-14,15:01～16:00,0.137,0.125,0.133,
江戸川 (Edogawa),2011-12-14,14:01～15:00,0.141,0.125,0.133,
江戸川 (Edogawa),2011-12-14,13:01～14:00,0.138,0.126,0.132,
江戸川 (Edogawa),2011-12-14,12:01～13:00,0.138,0.125,0.132,
江戸川 (Edogawa),2011-12-14,11:01～12:00,0.141,0.125,0.131,
江戸川 (Edogawa),2011-12-14,10:01～11:00,0.140,0.126,0.133,
江戸川 (Edogawa),2011-12-14,09:01～10:00,0.139,0.127,0.134,
江戸川 (Edogawa),2011-12-14,08:01～09:00,0.151,0.130,0.141,
江戸川 (Edogawa),2011-12-14,07:01～08:00,0.149,0.133,0.142,
江戸川 (Edogawa),2011-12-14,06:01～07:00,0.145,0.128,0.136,
江戸川 (Edogawa),2011-12-14,05:01～06:00,0.139,0.124,0.132,
江戸川 (Edogawa),2011-12-14,04:01～05:00,0.139,0.126,0.132,
江戸川 (Edogawa),2011-12-14,03:01～04:00,0.139,0.126,0.132,
江戸川 (Edogawa),2011-12-14,02:01～03:00,0.139,0.125,0.133,
江戸川 (Edogawa),2011-12-14,01:01～02:00,0.141,0.124,0.132,
江戸川 (Edogawa),2011-12-14,00:01～01:00,0.144,0.124,0.133,
江戸川 (Edogawa),2011-12-13,23:01～24:00,0.140,0.127,0.134,
江戸川 (Edogawa),2011-12-13,22:01～23:00,0.141,0.127,0.133,
江戸川 (Edogawa),2011-12-13,21:01～22:00,0.138,0.126,0.131,
江戸川 (Edogawa),2011-12-13,20:01～21:00,0.139,0.124,0.132,
江戸川 (Edogawa),2011-12-13,19:01～20:00,0.138,0.126,0.133,
江戸川 (Edogawa),2011-12-13,18:01～19:00,0.141,0.126,0.133,
江戸川 (Edogawa),2011-12-13,17:01～18:00,0.140,0.125,0.132,
江戸川 (Edogawa),2011-12-13,16:01～17:00,0.141,0.127,0.133,
江戸川 (Edogawa),2011-12-13,15:01～16:00,0.143,0.128,0.135,
江戸川 (Edogawa),2011-12-13,14:01～15:00,0.141,0.128,0.134,
江戸川 (Edogawa),2011-12-13,13:01～14:00,0.140,0.126,0.133,
江戸川 (Edogawa),2011-12-13,12:01～13:00,0.146,0.123,0.134,
江戸川 (Edogawa),2011-12-13,11:01～12:00,0.140,0.128,0.134,
江戸川 (Edogawa),2011-12-13,10:01～11:00,0.139,0.125,0.133,
江戸川 (Edogawa),2011-12-13,09:01～10:00,0.139,0.127,0.133,
江戸川 (Edogawa),2011-12-13,08:01～09:00,0.141,0.126,0.133,
江戸川 (Edogawa),2011-12-13,07:01～08:00,0.137,0.123,0.132,
江戸川 (Edogawa),2011-12-13,06:01～07:00,0.139,0.126,0.134,
江戸川 (Edogawa),2011-12-13,05:01～06:00,0.139,0.126,0.132,
江戸川 (Edogawa),2011-12-13,04:01～05:00,0.139,0.125,0.132,
江戸川 (Edogawa),2011-12-13,03:01～04:00,0.140,0.126,0.132,
江戸川 (Edogawa),2011-12-13,02:01～03:00,0.138,0.125,0.132,
江戸川 (Edogawa),2011-12-13,01:01～02:00,0.140,0.128,0.133,
江戸川 (Edogawa),2011-12-13,00:01～01:00,0.141,0.127,0.133,
江戸川 (Edogawa),2011-12-12,23:01～24:00,0.137,0.125,0.132,
江戸川 (Edogawa),2011-12-12,22:01～23:00,0.140,0.126,0.132,
江戸川 (Edogawa),2011-12-12,21:01～22:00,0.139,0.127,0.132,
江戸川 (Edogawa),2011-12-12,20:01～21:00,0.140,0.125,0.133,
江戸川 (Edogawa),2011-12-12,19:01～20:00,0.139,0.122,0.132,
江戸川 (Edogawa),2011-12-12,18:01～19:00,0.139,0.124,0.133,
江戸川 (Edogawa),2011-12-12,17:01～18:00,0.139,0.122,0.132,
江戸川 (Edogawa),2011-12-12,16:01～17:00,0.139,0.126,0.133,
江戸川 (Edogawa),2011-12-12,15:01～16:00,0.140,0.128,0.134,
江戸川 (Edogawa),2011-12-12,14:01～15:00,0.142,0.127,0.134,
江戸川 (Edogawa),2011-12-12,13:01～14:00,0.141,0.130,0.135,
江戸川 (Edogawa),2011-12-12,12:01～13:00,0.144,0.125,0.134,
江戸川 (Edogawa),2011-12-12,11:01～12:00,0.141,0.125,0.134,
江戸川 (Edogawa),2011-12-12,10:01～11:00,0.142,0.125,0.134,
江戸川 (Edogawa),2011-12-12,09:01～10:00,0.140,0.128,0.133,
江戸川 (Edogawa),2011-12-12,08:01～09:00,0.140,0.125,0.131,
江戸川 (Edogawa),2011-12-12,07:01～08:00,0.140,0.125,0.131,
江戸川 (Edogawa),2011-12-12,06:01～07:00,0.138,0.126,0.131,
江戸川 (Edogawa),2011-12-12,05:01～06:00,0.143,0.125,0.131,
江戸川 (Edogawa),2011-12-12,04:01～05:00,0.138,0.124,0.132,
江戸川 (Edogawa),2011-12-12,03:01～04:00,0.139,0.126,0.132,
江戸川 (Edogawa),2011-12-12,02:01～03:00,0.139,0.123,0.132,
江戸川 (Edogawa),2011-12-12,01:01～02:00,0.140,0.126,0.132,
江戸川 (Edogawa),2011-12-12,00:01～01:00,0.138,0.121,0.131,
